Location: Arthurs Seat
(13.1500°N, 59.6000°W)
Time: 16:12:36
(UTC+00:00)

Cosmos 783 Rocket - Pass Details

Date: 25 August 2019
Orbit: 757 x 780 km, 74.1° (Epoch: 16 September)

Event Time Altitude Azimuth Distance (km) Brightness Sun altitude
Rises 22:48:54 0° 350° (N) 3,229 8.1 -9.1°
Reaches altitude 10° 22:51:16 10° 352° (N) 2,306 7.3 -9.7°
Maximum altitude 22:56:30 74° 77° (ENE) 804 4.5 -10.9°
Drops below altitude 10° 23:01:45 10° 162° (SSE) 2,318 6.7 -12.2°
Sets 23:04:09 0° 164° (SSE) 3,248 7.4 -12.8°
